KK7HEZ Weather Reports


time (UTC)temp
C
wind
direction
speed
KPH
gust
KPH
rain 1hr
cm
rain 24hr
cm
rain mn
cm
humidity
%
barometer
mb
20260505122536 12 134 0.0 0.0 0.00 0.00 0.00 90 1015.0
20260505122033 12 135 0.0 0.0 0.00 0.00 0.00 90 1015.1
20260505121529 12 162 1.6 1.6 0.00 0.00 0.00 91 1015.0
20260505121026 12 223 1.6 4.8 0.00 0.00 0.00 91 1015.0
20260505120522 12 156 1.6 1.6 0.00 0.00 0.00 91 1014.9
20260505120018 12 144 0.0 0.0 0.00 0.00 0.00 91 1014.7
20260505115513 12 144 0.0 0.0 0.00 0.00 0.00 91 1014.7
20260505115011 12 144 0.0 0.0 0.00 0.00 0.00 91 1014.9
20260505114508 12 143 0.0 0.0 0.00 0.00 0.00 91 1014.9
20260505114004 12 132 0.0 0.0 0.00 0.00 0.00 91 1014.9
20260505113501 12 132 0.0 0.0 0.00 0.00 0.00 91 1014.7
20260505112956 12 140 0.0 0.0 0.00 0.00 0.00 91 1014.8
20260505112453 12 134 0.0 0.0 0.00 0.00 0.00 91 1014.8
20260505111950 12 144 0.0 0.0 0.00 0.00 0.00 91 1014.5
20260505111444 12 149 0.0 1.6 0.00 0.00 0.00 91 1014.8
20260505110941 12 144 0.0 0.0 0.00 0.00 0.00 91 1014.7
20260505110438 12 142 0.0 0.0 0.00 0.00 0.00 92 1014.6
20260505101908 12 157 0.0 0.0 0.00 0.00 0.00 92 1014.2
20260505101403 12 143 0.0 0.0 0.00 0.00 0.00 92 1014.3
20260505100859 12 143 0.0 0.0 0.00 0.00 0.00 92 1014.4
20260505100356 12 143 0.0 0.0 0.00 0.00 0.00 92 1014.2
20260505095852 12 143 0.0 0.0 0.00 0.00 0.00 92 1014.0
20260505095350 12 143 0.0 0.0 0.00 0.00 0.00 92 1014.1
20260505094845 12 142 0.0 0.0 0.00 0.00 0.00 92 1014.2
20260505094342 12 143 0.0 0.0 0.00 0.00 0.00 92 1014.1
20260505093838 12 143 0.0 0.0 0.00 0.00 0.00 92 1014.0
20260505093336 12 143 0.0 0.0 0.00 0.00 0.00 91 1013.9
20260505092833 12 143 0.0 0.0 0.00 0.00 0.00 91 1013.9
20260505092331 12 143 0.0 0.0 0.00 0.00 0.00 91 1013.7
20260505091828 12 143 0.0 0.0 0.00 0.00 0.00 91 1013.9
20260505091326 12 143 0.0 0.0 0.00 0.00 0.00 91 1013.6
20260505090824 12 143 0.0 0.0 0.00 0.00 0.00 91 1013.9
20260505090322 12 125 0.0 0.0 0.00 0.00 0.00 91 1013.8
20260505085818 12 125 0.0 0.0 0.00 0.00 0.00 90 1013.5
20260505085317 12 127 0.0 0.0 0.00 0.00 0.00 90 1013.7
20260505084814 13 127 0.0 0.0 0.00 0.00 0.00 90 1013.3
20260505084312 13 127 0.0 0.0 0.00 0.00 0.00 90 1013.8
20260505083809 13 127 0.0 0.0 0.00 0.00 0.00 89 1013.4
20260505083306 13 127 0.0 0.0 0.00 0.00 0.00 89 1013.5
20260505082803 13 127 0.0 0.0 0.00 0.00 0.00 89 1013.4
20260505082259 13 127 0.0 0.0 0.00 0.00 0.00 89 1013.5
20260505081755 13 144 0.0 0.0 0.00 0.00 0.00 89 1013.5
20260505081252 13 143 0.0 0.0 0.00 0.00 0.00 89 1013.4
20260505080749 13 144 0.0 0.0 0.00 0.00 0.00 89 1013.4
20260505080245 13 144 0.0 0.0 0.00 0.00 0.00 88 1013.2
20260505075740 13 142 0.0 0.0 0.00 0.00 0.00 88 1013.3
20260505075238 13 131 0.0 0.0 0.00 0.00 0.00 88 1013.3
20260505074735 13 149 1.6 1.6 0.00 0.00 0.00 88 1013.3
20260505074233 13 125 0.0 0.0 0.00 0.00 0.00 89 1013.1
20260505073730 13 210 0.0 0.0 0.00 0.00 0.00 89 1013.2
20260505073227 13 210 0.0 0.0 0.00 0.00 0.00 89 1013.0
20260505072724 13 210 0.0 0.0 0.00 0.00 0.00 89 1013.1
20260505072220 13 210 0.0 0.0 0.00 0.00 0.00 88 1013.0
20260505071715 13 210 0.0 0.0 0.00 0.00 0.00 88 1012.7
20260505071213 13 210 0.0 0.0 0.00 0.00 0.00 88 1012.8
20260505070710 13 210 0.0 0.0 0.00 0.00 0.00 88 1012.7
20260505070206 13 210 0.0 0.0 0.00 0.00 0.00 87 1012.9
20260505065702 13 210 0.0 0.0 0.00 0.00 0.00 87 1012.7
20260505065159 13 210 0.0 0.0 0.00 0.00 0.00 87 1012.6
20260505064656 13 210 0.0 0.0 0.00 0.00 0.00 86 1012.6
20260505064154 14 210 0.0 0.0 0.00 0.00 0.00 86 1012.7
20260505063652 14 210 0.0 0.0 0.00 0.00 0.00 86 1012.4
20260505063148 14 210 0.0 0.0 0.00 0.00 0.00 86 1012.5
20260505062644 14 210 0.0 0.0 0.00 0.00 0.00 86 1012.4
20260505062142 14 210 0.0 0.0 0.00 0.00 0.00 86 1012.1
20260505061639 14 210 0.0 0.0 0.00 0.00 0.00 86 1012.1
20260505061137 14 210 0.0 0.0 0.00 0.00 0.00 86 1012.4
20260505060634 14 210 0.0 0.0 0.00 0.00 0.00 86 1012.2
20260505060130 15 210 0.0 0.0 0.00 0.00 0.00 85 1012.1
20260505055626 15 210 0.0 0.0 0.00 0.00 0.00 85 1012.2
20260505055123 15 210 0.0 0.0 0.00 0.00 0.00 85 1012.1
20260505054620 15 210 0.0 0.0 0.00 0.00 0.00 85 1012.2
20260505054118 15 210 0.0 0.0 0.00 0.00 0.00 85 1012.1
20260505053615 15 210 0.0 0.0 0.00 0.00 0.00 85 1012.1
20260505053111 15 210 0.0 0.0 0.00 0.00 0.00 84 1012.2
20260505052608 15 210 0.0 0.0 0.00 0.00 0.00 84 1011.8
20260505052106 15 210 0.0 0.0 0.00 0.00 0.00 84 1011.9
20260505051603 15 210 0.0 0.0 0.00 0.00 0.00 84 1011.9
20260505051101 15 210 0.0 0.0 0.00 0.00 0.00 84 1011.6
20260505050558 15 210 0.0 0.0 0.00 0.00 0.00 84 1011.8
20260505041526 16 198 0.0 0.0 0.00 0.00 0.00 83 1011.0
20260505041024 16 199 0.0 0.0 0.00 0.00 0.00 84 1010.8
20260505040521 16 198 0.0 0.0 0.00 0.00 0.00 84 1011.0
20260505040018 17 198 0.0 0.0 0.00 0.00 0.00 81 1010.9
20260505035514 17 198 0.0 0.0 0.00 0.00 0.00 80 1010.8
20260505035011 17 198 0.0 0.0 0.00 0.00 0.00 80 1010.6
20260505034507 17 198 0.0 0.0 0.00 0.00 0.00 80 1010.5
20260505034004 17 198 0.0 0.0 0.00 0.00 0.00 79 1010.8
20260505033501 17 198 0.0 0.0 0.00 0.00 0.00 79 1010.7
20260505032959 17 198 0.0 0.0 0.00 0.00 0.00 78 1010.4
20260505032456 18 198 0.0 0.0 0.00 0.00 0.00 77 1010.5
20260505031953 18 198 0.0 0.0 0.00 0.00 0.00 77 1010.3
20260505031450 18 198 0.0 0.0 0.00 0.00 0.00 76 1010.6
20260505030947 18 198 0.0 0.0 0.00 0.00 0.00 73 1010.5
20260505030443 18 199 0.0 0.0 0.00 0.00 0.00 70 1010.4
20260505025938 19 199 0.0 0.0 0.00 0.00 0.00 69 1010.3
20260505025435 20 199 0.0 0.0 0.00 0.00 0.00 68 1010.1
20260505024934 20 199 0.0 0.0 0.00 0.00 0.00 67 1010.3
20260505024431 20 199 0.0 0.0 0.00 0.00 0.00 67 1010.3
20260505023928 20 199 0.0 0.0 0.00 0.00 0.00 66 1010.2
20260505023425 20 200 0.0 0.0 0.00 0.00 0.00 65 1010.4
20260505022922 20 200 0.0 0.0 0.00 0.00 0.00 65 1010.2
20260505022421 20 200 0.0 0.0 0.00 0.00 0.00 67 1010.1
20260505021917 20 200 0.0 0.0 0.00 0.00 0.00 66 1010.1
20260505021413 21 200 0.0 0.0 0.00 0.00 0.00 65 1010.3
20260505020909 21 199 1.6 1.6 0.00 0.00 0.00 65 1010.4
20260505020405 21 200 0.0 1.6 0.00 0.00 0.00 67 1010.5
20260505015902 20 199 1.6 1.6 0.00 0.00 0.00 66 1010.2
20260505015359 20 166 0.0 1.6 0.00 0.00 0.00 64 1010.2
20260505014856 20 140 0.0 0.0 0.00 0.00 0.00 65 1010.3
20260505014353 21 209 3.2 3.2 0.00 0.00 0.00 64 1010.3
20260505013850 21 159 0.0 0.0 0.00 0.00 0.00 63 1010.4
20260505013347 20 138 0.0 0.0 0.00 0.00 0.00 66 1010.4
20260505012845 20 139 0.0 0.0 0.00 0.00 0.00 67 1010.5
20260505012343 20 140 0.0 0.0 0.00 0.00 0.00 68 1010.3
20260505011839 20 171 1.6 1.6 0.00 0.00 0.00 67 1010.5
20260505011336 20 205 3.2 3.2 0.00 0.00 0.00 71 1010.5
20260505010831 19 180 1.6 3.2 0.00 0.00 0.00 72 1010.3
20260505010327 21 211 4.8 4.8 0.00 0.00 0.00 69 1010.4
20260505005824 21 194 1.6 1.6 0.00 0.00 0.00 65 1010.4
20260505005321 22 180 1.6 1.6 0.00 0.00 0.00 66 1010.4
20260505004819 21 183 1.6 1.6 0.00 0.00 0.00 68 1010.6
20260505004315 21 187 3.2 3.2 0.00 0.00 0.00 68 1010.4
20260505003812 21 130 0.0 0.0 0.00 0.00 0.00 71 1010.6
20260505003309 21 181 0.0 0.0 0.00 0.00 0.00 72 1010.6
20260505002805 20 161 1.6 1.6 0.00 0.00 0.00 73 1010.6
20260505002304 20 219 3.2 3.2 0.00 0.00 0.00 74 1010.7
20260505001801 21 212 4.8 4.8 0.00 0.00 0.00 71 1010.5
20260505001257 22 131 1.6 3.2 0.00 0.00 0.00 62 1010.3
20260505000755 21 124 0.0 0.0 0.00 0.00 0.00 65 1010.3
20260505000252 21 142 0.0 0.0 0.00 0.00 0.00 67 1010.4
20260504235749 22 99 1.6 1.6 0.00 0.00 0.00 68 1010.4
20260504235245 23 141 0.0 0.0 0.00 0.00 0.00 59 1010.6
20260504234742 23 216 4.8 4.8 0.00 0.00 0.00 56 1010.4
20260504234240 24 203 3.2 3.2 0.00 0.00 0.00 54 1010.5
20260504233736 25 208 1.6 1.6 0.00 0.00 0.00 51 1010.4
20260504233232 25 206 1.6 1.6 0.00 0.00 0.00 53 1010.6
20260504232729 24 214 1.6 3.2 0.00 0.00 0.00 56 1010.5
20260504232226 25 195 3.2 4.8 0.00 0.00 0.00 51 1010.4
20260504231722 25 197 1.6 1.6 0.00 0.00 0.00 51 1010.5
20260504231219 25 194 0.0 1.6 0.00 0.00 0.00 51 1010.6
20260504230715 24 167 1.6 1.6 0.00 0.00 0.00 55 1010.5
20260504230214 24 170 1.6 1.6 0.00 0.00 0.00 53 1010.6
20260504225712 23 190 0.0 0.0 0.00 0.00 0.00 61 1010.7
20260504225208 23 143 1.6 1.6 0.00 0.00 0.00 61 1010.4
20260504224705 23 160 1.6 3.2 0.00 0.00 0.00 56 1010.5
20260504224203 22 121 0.0 0.0 0.00 0.00 0.00 60 1010.7
20260504223659 22 151 1.6 1.6 0.00 0.00 0.00 63 1010.6
20260504223155 22 235 4.8 4.8 0.00 0.00 0.00 60 1010.8
20260504222652 22 124 0.0 0.0 0.00 0.00 0.00 61 1010.7
20260504222148 22 225 3.2 3.2 0.00 0.00 0.00 61 1010.8
20260504221646 21 149 1.6 1.6 0.00 0.00 0.00 63 1010.9
20260504221143 22 209 3.2 3.2 0.00 0.00 0.00 63 1011.1
20260504220639 21 149 1.6 3.2 0.00 0.00 0.00 62 1011.1
20260504220137 21 113 0.0 0.0 0.00 0.00 0.00 60 1011.1
20260504215633 20 206 3.2 4.8 0.00 0.00 0.00 61 1011.4
20260504215131 21 105 1.6 1.6 0.00 0.00 0.00 58 1011.3
20260504214626 21 105 0.0 0.0 0.00 0.00 0.00 57 1011.3
20260504214123 21 114 0.0 0.0 0.00 0.00 0.00 55 1011.2
20260504213619 21 125 0.0 0.0 0.00 0.00 0.00 56 1011.2
20260504213116 21 153 1.6 3.2 0.00 0.00 0.00 55 1011.3
20260504212612 21 128 0.0 0.0 0.00 0.00 0.00 55 1011.3
20260504212110 21 108 0.0 0.0 0.00 0.00 0.00 56 1011.3
20260504211607 21 138 0.0 0.0 0.00 0.00 0.00 53 1011.3
20260504211103 21 126 0.0 0.0 0.00 0.00 0.00 55 1011.5
20260504210601 21 208 3.2 3.2 0.00 0.00 0.00 54 1011.6
20260504210057 21 191 4.8 8.0 0.00 0.00 0.00 55 1011.4
20260504205555 21 197 4.8 4.8 0.00 0.00 0.00 57 1011.7
20260504205052 21 141 1.6 1.6 0.00 0.00 0.00 57 1011.6
20260504204550 20 220 4.8 4.8 0.00 0.00 0.00 56 1011.7
20260504204049 21 233 4.8 4.8 0.00 0.00 0.00 58 1011.5
20260504203547 20 228 4.8 4.8 0.00 0.00 0.00 55 1011.6
20260504203044 20 173 3.2 3.2 0.00 0.00 0.00 60 1011.6
20260504202539 20 190 3.2 3.2 0.00 0.00 0.00 61 1011.7
20260504202037 20 179 3.2 3.2 0.00 0.00 0.00 60 1011.7
20260504201533 20 207 3.2 3.2 0.00 0.00 0.00 64 1011.8
20260504201032 20 169 3.2 3.2 0.00 0.00 0.00 61 1011.8
20260504200527 20 201 3.2 3.2 0.00 0.00 0.00 61 1011.9
20260504200024 19 193 3.2 3.2 0.00 0.00 0.00 65 1011.7
20260504195520 19 200 3.2 3.2 0.00 0.00 0.00 63 1011.8
20260504195017 19 178 1.6 3.2 0.00 0.00 0.00 65 1011.7
20260504194514 19 218 3.2 3.2 0.00 0.00 0.00 65 1011.6
20260504194009 19 176 1.6 3.2 0.00 0.00 0.00 63 1011.8
20260504193506 19 193 3.2 3.2 0.00 0.00 0.00 63 1011.8
20260504193005 19 204 1.6 3.2 0.00 0.00 0.00 62 1011.7
20260504192503 18 168 1.6 1.6 0.00 0.00 0.00 61 1011.8
20260504192001 18 157 3.2 3.2 0.00 0.00 0.00 62 1011.9
20260504191458 18 209 3.2 3.2 0.00 0.00 0.00 64 1012.0
20260504190954 18 181 1.6 3.2 0.00 0.00 0.00 63 1011.8
20260504190449 18 199 3.2 3.2 0.00 0.00 0.00 63 1011.8
20260504185946 19 167 1.6 1.6 0.00 0.00 0.00 63 1011.7
20260504185444 19 202 3.2 3.2 0.00 0.00 0.00 64 1012.0
20260504184939 18 169 0.0 1.6 0.00 0.00 0.00 69 1012.2
20260504184435 17 171 1.6 3.2 0.00 0.00 0.00 71 1012.1
20260504183931 17 225 4.8 4.8 0.00 0.00 0.00 68 1012.1
20260504183429 17 146 0.0 0.0 0.00 0.00 0.00 71 1012.1
20260504182927 19 193 3.2 3.2 0.00 0.00 0.00 68 1012.0
20260504182423 19 210 3.2 3.2 0.00 0.00 0.00 62 1012.0
20260504181920 18 191 3.2 3.2 0.00 0.00 0.00 60 1012.3
20260504181418 18 156 0.0 0.0 0.00 0.00 0.00 65 1011.9
20260504180916 18 213 4.8 4.8 0.00 0.00 0.00 68 1012.3
20260504180415 18 148 0.0 0.0 0.00 0.00 0.00 66 1012.0
20260504175913 18 157 1.6 1.6 0.00 0.00 0.00 66 1012.1
20260504175409 17 176 0.0 0.0 0.00 0.00 0.00 67 1012.0
20260504174907 16 177 1.6 1.6 0.00 0.00 0.00 68 1012.0
20260504174404 15 145 0.0 0.0 0.00 0.00 0.00 74 1012.2
20260504173902 15 145 0.0 0.0 0.00 0.00 0.00 78 1012.1
20260504173358 15 145 0.0 0.0 0.00 0.00 0.00 84 1012.0
20260504172855 14 144 0.0 0.0 0.00 0.00 0.00 85 1012.1
20260504172351 13 140 0.0 0.0 0.00 0.00 0.00 86 1011.9
20260504171847 13 132 0.0 0.0 0.00 0.00 0.00 87 1012.2
20260504171345 13 151 1.6 1.6 0.00 0.00 0.00 86 1012.0
20260504170842 13 140 0.0 0.0 0.00 0.00 0.00 86 1012.1
20260504170338 13 144 0.0 0.0 0.00 0.00 0.00 86 1012.1
20260504160257 12 196 1.6 1.6 0.00 0.00 0.00 91 1011.9
20260504150722 12 194 0.0 0.0 0.00 0.00 0.00 90 1011.5
20260504150219 12 194 0.0 0.0 0.00 0.00 0.00 90 1011.5
20260504141148 11 193 0.0 0.0 0.00 0.00 0.00 89 1011.0
20260504140645 11 193 0.0 0.0 0.00 0.00 0.00 89 1011.1
20260504140140 11 193 0.0 0.0 0.00 0.00 0.00 89 1011.1
20260504130609 11 193 0.0 0.0 0.00 0.00 0.00 88 1010.8
20260504130106 11 193 0.0 0.0 0.00 0.00 0.00 88 1010.8